Location: Suburban Lights Observatory
(43.1572°N, 89.2764°W)
Time: 23:50:40
(UTC-05:00)

Daily predictions for brighter satellites

Satellite Brightness Start Highest point End
(mag) Time Altitude Azimuth Time Altitude Azimuth Time Altitude Azimuth
Cosmos 1833 Rocket 3.8 20:56:23 10° NW 21:01:43 45° WSW 21:07:02 10° S
COSMOS 2455 3.4 20:56:51 10° S 21:02:14 35° ESE 21:07:38 10° NE
Cosmos 1825 4.1 21:03:47 10° ESE 21:05:51 14° E 21:07:55 10° NE
H-2A R/B 3.6 21:04:29 10° ESE 21:08:29 22° ENE 21:12:26 10° NNE
Cosmos 1408 4.4 21:06:28 10° SE 21:08:49 16° E 21:11:10 10° NE
Okean 1-7 4.0 21:07:57 10° NNE 21:11:53 31° ENE 21:15:49 10° SE
SPOT 5 4.2 21:10:19 10° SE 21:14:54 30° ENE 21:19:29 10° N
Cosmos 1703 Rocket 3.9 21:11:51 10° N 21:16:10 50° ENE 21:20:26 10° SSE
Tiangong 2 1.3 21:13:50 10° W 21:17:00 57° SSW 21:19:51 12° ESE
Cosmos 1892 2.6 21:13:42 10° S 21:17:33 80° E 21:21:25 10° N
Cosmos 1470 Rocket 4.5 21:13:17 10° SSW 21:17:41 54° W 21:22:06 10° N
Cosmos 1937 Rocket 3.5 21:12:49 10° SSW 21:17:57 88° WNW 21:23:08 10° NNE
Meteor 1-29 3.0 21:16:09 10° NNE 21:19:37 59° ESE 21:23:03 10° S
Cosmos 2298 Rocket 4.3 21:16:11 10° SSW 21:21:28 77° WNW 21:26:48 10° NNE
Cosmos 2150 Rocket 4.1 21:16:11 10° SSW 21:21:34 86° WNW 21:26:55 10° NNE
ATLAS 3B R/B 4.4 21:15:12 10° WSW 21:22:07 41° NW 21:28:46 10° NNE
MetOp-A 4.4 21:22:47 10° SSE 21:27:59 56° ENE 21:33:13 10° N
USA 186 4.4 21:26:46 10° SW 21:28:12 14° W 21:29:41 10° WNW
Cosmos 1943 Rocket 3.0 21:26:14 10° SSE 21:30:58 29° ESE 21:35:42 10° NE
Lacrosse 5 rocket 1.7 21:29:54 10° S 21:33:04 30° SE 21:36:17 10° ENE
Cosmos 1939 Rocket 4.1 21:29:47 10° S 21:33:42 41° W 21:37:39 10° NNW
NOAA 11 4.2 21:28:29 10° SSE 21:33:55 74° ENE 21:39:24 10° N
Cosmos 1869 Rocket 3.6 21:31:56 10° S 21:36:11 58° E 21:40:28 10° NNE
Cosmos 1346 Rocket 3.3 21:33:52 10° NNW 21:37:46 59° W 21:41:42 10° S
CZ-4B DEB 3.5 21:38:03 10° S 21:40:52 46° W 21:43:43 10° NNW
Cosmos 1340 3.8 21:37:53 10° NNE 21:41:14 29° ENE 21:43:13 18° ESE
Cosmos 2221 Rocket 3.6 21:37:23 10° N 21:41:49 66° E 21:45:32 14° SSE
Cosmos 2369 Rocket 2.2 21:39:08 10° SSW 21:44:43 68° ESE 21:50:23 10° NNE
ERS-1 Rocket 3.0 21:43:21 10° SSE 21:48:19 83° WSW 21:53:24 10° NNW
Cosmos 1048 Rocket 4.5 21:43:23 10° N 21:48:34 49° ENE 21:52:08 19° SE
Cosmos 1606 2.9 21:44:55 10° N 21:48:38 54° E 21:50:58 21° SSE
Meteor 1-10 Rocket 4.4 21:44:25 10° N 21:50:22 69° ENE 21:55:13 16° SSE
Meteor 1-27 Rocket 4.3 21:46:03 10° N 21:51:31 42° ENE 21:55:10 19° SE
Cosmos 1634 Rocket 4.2 21:46:19 10° N 21:52:36 75° W 21:58:53 10° S
Shenzhou-11 Module 3.2 21:52:52 10° W 21:55:35 29° SSW 21:56:30 24° S
Cosmos 2084 3.2 21:54:22 10° NW 21:58:12 82° SW 22:00:25 25° SSE
Helios 1B rocket 4.1 21:57:39 10° N 22:01:26 36° WNW 22:05:11 10° SW
BREEZE M DEB (TANK) 4.0 21:50:08 10° SW 22:03:24 69° SSE 22:07:15 10° ENE
GEOS 3 Rocket 4.2 22:02:34 19° ESE 22:06:02 49° NE 22:11:06 10° NNW
SPOT 1/Viking Rocket 3.7 22:02:51 22° SSE 22:06:12 62° ENE 22:11:22 10° N
Meteor 2-6 Rocket 4.3 22:00:54 10° N 22:06:52 85° E 22:11:26 18° S
Nadezhda 4 Rocket 4.4 22:04:23 20° SSE 22:08:17 43° E 22:14:05 10° NNE
USA 215 3.4 22:04:05 20° SE 22:08:50 66° SW 22:15:23 10° NW
YAOGAN 11 4.1 22:06:28 22° SSE 22:09:24 84° ENE 22:13:57 10° NNW
Cosmos 1782 3.0 22:08:23 10° NNW 22:12:22 67° W 22:14:58 20° S
Lacrosse 4 Rocket 2.1 22:09:17 10° NNW 22:13:40 48° NE 22:15:43 27° ESE
ATLAS 5 CENTAUR R/B 2.6 22:07:57 10° NNW 22:13:52 65° NE 22:17:52 24° SE
Cosmos 1269 Rocket 4.0 22:14:24 10° NNW 22:19:44 82° ENE 22:22:37 28° SSE
H-2A R/B 3.4 22:20:16 21° E 22:21:26 24° ENE 22:24:44 10° NNE
Milstar 3 4.0 22:15:38 10° SW 22:23:27 25° S 22:25:14 23° SSE
Cosmos 372 Rocket 3.9 22:23:11 10° SSW 22:28:20 89° ESE 22:33:28 10° NNE
Cosmos 2279 Rocket 4.3 22:22:35 10° NNW 22:28:48 66° W 22:33:42 17° S
ARGOS 3.7 22:25:05 17° S 22:29:07 55° W 22:34:24 10° NNW
GPS 2-04 Rocket1 4.0 22:26:30 10° WSW 22:28:27 21° SSW 22:28:27 21° SSW
Cosmos 1125 Rocket 3.6 22:24:22 10° SSW 22:29:36 76° WNW 22:34:52 10° NNE
Cosmos 1862 3.2 22:29:17 31° S 22:31:07 87° E 22:35:06 10° N
Landsat 7 3.8 22:29:44 33° SSE 22:31:49 74° ENE 22:36:35 10° N
Cosmos 1656 Rocket 4.0 22:31:51 32° SSE 22:33:39 42° ESE 22:38:49 10° NE
ISS -3.4 22:32:06 10° WSW 22:35:20 62° NNW 22:38:33 10° NE
CENTAUR R/B 2.6 22:34:38 10° SW 22:40:41 83° NW 22:47:38 10° NE
Cosmos 1825 3.5 22:38:00 13° SW 22:41:05 37° WNW 22:44:38 10° N
Cosmos 1867 4.3 22:36:08 10° NNW 22:41:21 43° NE 22:43:51 27° ESE
Cosmos 1908 Rocket 4.2 22:41:27 35° ESE 22:41:55 36° E 22:46:01 10° NNE
Cosmos 1408 4.3 22:40:27 11° SW 22:43:40 31° WNW 22:47:03 10° NNW
Cosmos 1437 3.6 22:41:43 10° N 22:44:29 38° ENE 22:44:29 38° ENE
Okean 3 3.9 22:42:42 10° N 22:46:43 44° ENE 22:47:16 41° E
Terra 1.8 22:45:22 42° SSE 22:46:57 73° ENE 22:51:43 10° N
H-2A R/B 2.6 22:44:20 24° S 22:47:29 57° W 22:52:45 10° NNW
COSMOS 2455 4.1 22:42:23 10° WSW 22:48:03 42° NW 22:53:47 10° NNE
Cosmos 2227 Rocket 4.2 22:47:17 10° N 22:51:03 18° NE 22:54:18 12° E
IGS 5A 3.3 22:51:10 54° SSE 22:52:02 79° ENE 22:56:12 10° N
SPOT 5 4.2 22:49:16 18° SSW 22:52:47 39° W 22:57:46 10° NNW
Tiangong 2 3.6 22:51:23 10° WSW 22:52:13 14° WSW 22:52:13 14° WSW
Cosmos 2219 3.9 22:49:10 10° NNW 22:54:40 45° ENE 22:56:51 31° ESE
deb Chang Zheng 4 4.0 22:53:34 10° NNE 22:57:49 43° E 22:57:55 43° ESE
Cosmos 1812 3.8 22:55:30 10° N 22:58:56 32° ENE 22:58:56 32° ENE
CZ-2C R/B 4.3 22:57:40 10° NE 23:00:33 16° E 23:00:33 16° E
Cosmos 2344 3.6 22:56:57 10° SW 23:04:36 88° NW 23:13:16 10° NE
Sich 1 Rocket 3.6 23:06:00 59° ESE 23:06:24 62° E 23:10:47 10° NNE
Cosmos 494 Rocket 3.9 23:02:11 10° NNW 23:07:27 79° ENE 23:08:45 51° SE
Cosmos 1733 Rocket 3.8 23:06:59 27° SW 23:08:56 47° WNW 23:13:08 10° N
Cosmos 1782 Rocket 4.2 23:09:07 41° E 23:09:07 41° E 23:13:07 10° NNE
Lacrosse 5 rocket 2.8 23:08:54 10° W 23:12:12 32° NNW 23:15:35 10° NNE
Cosmos 1943 Rocket 3.3 23:09:13 10° SW 23:14:31 42° WNW 23:19:48 10° NNE
CZ-4 R/B 3.7 23:10:06 10° NNE 23:14:44 66° ESE 23:15:13 61° SE
Spot 4 3.9 23:14:20 56° SE 23:15:13 70° ENE 23:20:02 10° N
Cosmos 405 Rocket 3.5 23:14:49 10° N 23:17:52 39° NE 23:17:52 39° NE
CZ-4B R/B 3.3 23:21:35 10° NNE 23:26:34 66° ESE 23:27:00 63° SE
SME Rocket 4.4 23:24:45 42° S 23:27:12 81° WSW 23:36:27 10° NNW
Cosmos 2026 Rocket 3.9 23:25:32 48° SSE 23:27:22 76° E 23:33:36 10° N
ALOS 2 4.2 23:28:20 23° ENE 23:28:40 23° ENE 23:32:06 10° NNE
Cosmos 1975 Rocket 3.1 23:26:07 10° N 23:30:34 67° E 23:30:38 67° E
Cosmos 1417 Rocket 4.5 23:32:31 10° N 23:38:48 74° E 23:40:20 53° SSE
S3M 4.0 23:38:59 10° N 23:45:04 64° E 23:46:18 52° SE
Cosmos 1428 Rocket 4.4 23:45:03 54° SSE 23:46:31 76° E 23:52:50 10° N
Cosmos 2297 Rocket 3.3 23:41:23 10° N 23:46:33 34° NE 23:48:16 28° E
Cosmos 1378 Rocket 4.3 23:42:34 10° NNW 23:46:47 44° W 23:47:08 43° WSW
Cosmos 2251 Rocket 3.7 23:41:44 10° NNW 23:46:52 56° WSW 23:47:31 52° SW
Cosmos 1441 Rocket 3.9 23:43:03 10° N 23:46:10 48° NNE 23:46:10 48° NNE
Lacrosse 4 Rocket 3.5 23:48:53 10° WNW 23:52:01 19° WSW 23:52:03 19° WSW
